Starlink 11463

operational
NORAD ID: 62066 Int'l Des: 2024-217 Owner: SPXS Country: US Constellation: starlink
LEOCIRCULAR

Über Starlink 11463

Beschreibung wird geladen...

Live-Position

3D-Globus wird geladen...

Nächste Überflüge

Höhenverlauf

Altitude vs Time

uPlot chart will show altitude changes over time

Zweizeiliger Elementsatz

1 62066U 24217K 25258.59650266 .00280871 00000-0 22316-2 0 9999
2 62066 53.1568 214.3665 0000453 309.0532 51.0445 15.69859956 47677
Epoch: 15. Sept. 2025 • Age: 10 hours

Aktueller Status

Höhe 376.3 km
Geschwindigkeit 7.68 km/s
Subsatellitenpunkt -51.96°S, 134.67°E
Startdatum 24. Nov. 2024
Alter 0.8 years
Typ internet

Technische Details

Klassifizierung Payload
Masse 960.00 kg
Trockenmasse 910.00 kg
Gesamtmasse 960.00 kg
Länge 0.30 m
Durchmesser 4.10 m
Spannweite 29.00 m
Form Box + pan
Hersteller SPXS
Bus-Typ Starlink V2MD
Phasenstatus In Orbit
Besitzer/Staat SPXS/US

Große Konstellationen

Loading constellations...